Location: Ffald-y-Brenin
(52.0833°N, 4.0000°W)
Time: 10:33:25
(UTC+00:00)

SKYMED 2 - Pass Details

Date: 18 February 2020
Orbit: 621 x 623 km, 97.9° (Epoch: 04 April)

Event Time Altitude Azimuth Distance (km) Brightness Sun altitude
Rises 05:07:24 0° 160° (SSE) 2,894 7.1 -21.9°
Reaches altitude 10° 05:09:35 10° 159° (SSE) 1,993 6.3 -21.6°
Maximum altitude 05:13:54 78° 74° (ENE) 644 3.6 -21.0°
Drops below altitude 10° 05:18:17 10° 348° (NNW) 2,009 6.1 -20.3°
Sets 05:20:29 0° 347° (NNW) 2,920 7.0 -19.9°
